| time (UTC) | temp C | wind direction | speed KPH | gust KPH | rain 1hr cm | rain 24hr cm | rain mn cm | humidity % | barometer mb |
| 20260505165243 | 12 | 29 | 3.2 | 14.5 | 0.00 | 15.90 | 0.18 | 94 | 1009.1 |
| 20260505164237 | 12 | 15 | 4.8 | 12.9 | 0.00 | 15.90 | 0.18 | 94 | 1009.2 |
| 20260505163307 | 12 | 5 | 3.2 | 12.9 | 0.00 | 15.90 | 0.18 | 94 | 1009.2 |
| 20260505162307 | 12 | 41 | 6.4 | 19.3 | 0.00 | 15.90 | 0.18 | 95 | 1009.2 |
| 20260505161238 | 12 | 28 | 6.4 | 17.7 | 0.00 | 15.90 | 0.18 | 95 | 1009.2 |
| 20260505160249 | 12 | 38 | 9.7 | 17.7 | 0.00 | 15.90 | 0.18 | 95 | 1009.2 |
| 20260505153231 | 12 | 53 | 3.2 | 9.7 | 0.00 | 15.90 | 0.18 | 96 | 1009.4 |
| 20260505152244 | 12 | 26 | 3.2 | 12.9 | 0.00 | 15.90 | 0.18 | 96 | 1009.5 |
| 20260505151226 | 12 | 77 | 1.6 | 9.7 | 0.00 | 15.90 | 0.18 | 97 | 1009.6 |
| 20260505150252 | 12 | 48 | 4.8 | 11.3 | 0.00 | 15.90 | 0.18 | 97 | 1009.6 |
| 20260505140227 | 12 | 44 | 1.6 | 9.7 | 0.00 | 15.90 | 0.18 | 98 | 1009.9 |
| 20260505130230 | 11 | 42 | 4.8 | 9.7 | 0.00 | 15.90 | 0.18 | 98 | 1010.3 |
| 20260505124233 | 11 | 27 | 3.2 | 14.5 | 0.00 | 15.90 | 0.18 | 98 | 1010.4 |
| 20260505123234 | 11 | 57 | 4.8 | 11.3 | 0.00 | 15.90 | 0.18 | 98 | 1010.4 |
| 20260505122255 | 11 | 19 | 4.8 | 16.1 | 0.00 | 15.90 | 0.18 | 98 | 1010.4 |
| 20260505121307 | 11 | 5 | 3.2 | 14.5 | 0.00 | 15.90 | 0.18 | 98 | 1010.5 |
| 20260505120227 | 11 | 355 | 6.4 | 14.5 | 0.00 | 15.90 | 0.18 | 98 | 1010.4 |
| 20260505115315 | 11 | 34 | 3.2 | 14.5 | 0.00 | 15.90 | 0.18 | 98 | 1010.5 |
| 20260505114231 | 11 | 40 | 4.8 | 14.5 | 0.00 | 15.90 | 0.18 | 98 | 1010.6 |
| 20260505113230 | 11 | 16 | 8.0 | 17.7 | 0.00 | 15.90 | 0.18 | 98 | 1010.6 |
| 20260505112306 | 11 | 360 | 6.4 | 14.5 | 0.00 | 15.90 | 0.18 | 98 | 1010.8 |
| 20260505111229 | 11 | 35 | 4.8 | 16.1 | 0.00 | 15.90 | 0.18 | 98 | 1010.8 |
| 20260505110246 | 11 | 11 | 6.4 | 14.5 | 0.00 | 15.90 | 0.18 | 98 | 1010.8 |
| 20260505101258 | 11 | 42 | 3.2 | 17.7 | 0.00 | 16.00 | 0.18 | 98 | 1010.9 |
| 20260505100247 | 11 | 44 | 6.4 | 19.3 | 0.00 | 16.00 | 0.18 | 99 | 1010.8 |
| 20260505095243 | 11 | 90 | 4.8 | 17.7 | 0.00 | 16.00 | 0.18 | 98 | 1010.7 |
| 20260505094252 | 11 | 42 | 8.0 | 20.9 | 0.00 | 16.00 | 0.18 | 98 | 1010.6 |
| 20260505093231 | 11 | 67 | 11.3 | 19.3 | 0.00 | 16.00 | 0.18 | 98 | 1010.7 |
| 20260505092256 | 11 | 5 | 6.4 | 19.3 | 0.00 | 16.00 | 0.18 | 98 | 1010.9 |
| 20260505091247 | 11 | 41 | 4.8 | 17.7 | 0.00 | 16.00 | 0.18 | 99 | 1010.9 |
| 20260505090244 | 11 | 347 | 6.4 | 17.7 | 0.00 | 16.00 | 0.18 | 98 | 1010.9 |
| 20260505085232 | 11 | 28 | 11.3 | 17.7 | 0.00 | 16.00 | 0.18 | 98 | 1010.9 |
| 20260505084241 | 11 | 5 | 11.3 | 17.7 | 0.00 | 16.00 | 0.18 | 98 | 1010.9 |
| 20260505083240 | 11 | 30 | 9.7 | 17.7 | 0.00 | 16.00 | 0.18 | 99 | 1010.9 |
| 20260505082252 | 11 | 12 | 8.0 | 16.1 | 0.00 | 16.00 | 0.18 | 98 | 1011.0 |
| 20260505081243 | 11 | 30 | 8.0 | 16.1 | 0.00 | 16.00 | 0.18 | 98 | 1010.9 |
| 20260505080245 | 11 | 342 | 11.3 | 17.7 | 0.00 | 16.00 | 0.18 | 98 | 1010.9 |
| 20260505075238 | 11 | 346 | 8.0 | 16.1 | 0.00 | 16.00 | 0.18 | 98 | 1011.0 |
| 20260505074250 | 11 | 25 | 9.7 | 22.5 | 0.00 | 16.00 | 0.18 | 98 | 1011.1 |
| 20260505073300 | 11 | 327 | 9.7 | 16.1 | 0.00 | 16.00 | 0.18 | 98 | 1011.1 |
| 20260505072251 | 11 | 321 | 9.7 | 17.7 | 0.00 | 16.00 | 0.18 | 98 | 1011.1 |
| 20260505071232 | 11 | 5 | 8.0 | 17.7 | 0.00 | 16.00 | 0.18 | 98 | 1011.0 |
| 20260505070241 | 11 | 39 | 6.4 | 16.1 | 0.00 | 16.00 | 0.18 | 98 | 1011.0 |
| 20260505064240 | 11 | 360 | 8.0 | 16.1 | 0.00 | 16.00 | 0.18 | 98 | 1011.0 |
| 20260505063257 | 11 | 346 | 9.7 | 16.1 | 0.00 | 16.00 | 0.18 | 98 | 1011.1 |
| 20260505062258 | 11 | 5 | 6.4 | 19.3 | 0.00 | 16.00 | 0.18 | 98 | 1011.2 |
| 20260505061238 | 11 | 17 | 6.4 | 16.1 | 0.00 | 16.00 | 0.05 | 98 | 1011.2 |
| 20260505060305 | 11 | 351 | 6.4 | 17.7 | 0.00 | 16.00 | 0.05 | 98 | 1011.3 |
| 20260505055244 | 11 | 17 | 11.3 | 19.3 | 0.00 | 16.00 | 0.05 | 98 | 1011.3 |
| 20260505054239 | 11 | 342 | 8.0 | 14.5 | 0.00 | 16.00 | 0.05 | 98 | 1011.3 |
| 20260505053241 | 11 | 355 | 9.7 | 16.1 | 0.00 | 16.00 | 0.05 | 98 | 1011.2 |
| 20260505052254 | 11 | 57 | 6.4 | 17.7 | 0.00 | 16.00 | 0.05 | 98 | 1011.1 |
| 20260505051237 | 11 | 39 | 9.7 | 19.3 | 0.00 | 16.00 | 0.05 | 98 | 1011.1 |
| 20260505050245 | 11 | 5 | 8.0 | 17.7 | 0.00 | 16.00 | 0.05 | 98 | 1011.1 |
| 20260505041226 | 11 | 344 | 8.0 | 17.7 | 0.10 | 16.00 | 0.05 | 98 | 1011.3 |
| 20260505040256 | 11 | 355 | 9.7 | 19.3 | 0.10 | 16.00 | 0.05 | 98 | 1011.2 |
| 20260505035251 | 11 | 325 | 11.3 | 20.9 | 0.20 | 16.00 | 0.05 | 98 | 1011.1 |
| 20260505034230 | 11 | 37 | 6.4 | 17.7 | 0.20 | 16.00 | 0.05 | 98 | 1011.1 |
| 20260505033240 | 11 | 360 | 6.4 | 14.5 | 0.20 | 16.00 | 0.05 | 98 | 1011.1 |
| 20260505032244 | 11 | 38 | 8.0 | 16.1 | 0.20 | 16.00 | 0.05 | 98 | 1011.2 |
| 20260505031228 | 11 | 348 | 4.8 | 16.1 | 0.10 | 15.90 | 0.05 | 98 | 1011.2 |
| 20260505030236 | 11 | 338 | 9.7 | 19.3 | 0.10 | 15.90 | 0.05 | 98 | 1011.2 |
| 20260505025235 | 12 | 17 | 8.0 | 17.7 | 0.00 | 15.80 | 0.03 | 98 | 1011.2 |
| 20260505024302 | 12 | 355 | 8.0 | 12.9 | 0.00 | 15.80 | 0.03 | 98 | 1011.2 |
| 20260505023259 | 12 | 24 | 6.4 | 14.5 | 0.00 | 15.80 | 0.03 | 98 | 1011.3 |
| 20260505022320 | 12 | 55 | 6.4 | 14.5 | 0.00 | 15.80 | 0.03 | 98 | 1011.3 |
| 20260505021250 | 12 | 27 | 6.4 | 17.7 | 0.00 | 15.80 | 0.03 | 98 | 1011.3 |
| 20260505020249 | 12 | 10 | 8.0 | 17.7 | 0.00 | 15.80 | 0.03 | 98 | 1011.3 |
| 20260505015229 | 12 | 44 | 11.3 | 19.3 | 0.00 | 15.80 | 0.03 | 98 | 1011.2 |
| 20260505014229 | 12 | 11 | 8.0 | 17.7 | 0.00 | 15.80 | 0.03 | 98 | 1011.3 |
| 20260505013254 | 12 | 46 | 9.7 | 17.7 | 0.00 | 15.80 | 0.03 | 98 | 1011.3 |
| 20260505012245 | 12 | 5 | 9.7 | 19.3 | 0.00 | 15.80 | 0.03 | 98 | 1011.2 |
| 20260505011228 | 12 | 336 | 9.7 | 16.1 | 0.00 | 15.80 | 0.03 | 98 | 1011.2 |
| 20260505010240 | 12 | 35 | 6.4 | 17.7 | 0.00 | 15.80 | 0.03 | 98 | 1011.4 |
| 20260505005236 | 12 | 38 | 8.0 | 16.1 | 0.00 | 15.80 | 0.03 | 98 | 1011.4 |
| 20260505004255 | 12 | 22 | 6.4 | 16.1 | 0.00 | 15.80 | 0.03 | 98 | 1011.4 |
| 20260505003243 | 12 | 351 | 11.3 | 19.3 | 0.00 | 15.80 | 0.03 | 98 | 1011.5 |
| 20260505002325 | 13 | 360 | 8.0 | 20.9 | 0.00 | 15.80 | 0.03 | 98 | 1011.5 |
| 20260505001226 | 13 | 355 | 8.0 | 11.3 | 0.00 | 15.80 | 0.03 | 98 | 1011.6 |
| 20260505000243 | 13 | 13 | 6.4 | 16.1 | 0.00 | 15.80 | 0.03 | 98 | 1011.7 |
| 20260504235249 | 13 | 348 | 6.4 | 12.9 | 0.00 | 15.80 | 0.03 | 98 | 1011.7 |
| 20260504234231 | 13 | 360 | 8.0 | 16.1 | 0.00 | 15.80 | 0.03 | 98 | 1011.7 |
| 20260504233225 | 13 | 24 | 9.7 | 14.5 | 0.00 | 15.80 | 0.03 | 98 | 1011.7 |
| 20260504232307 | 13 | 22 | 8.0 | 16.1 | 0.00 | 15.80 | 0.03 | 97 | 1011.7 |
| 20260504231229 | 13 | 18 | 9.7 | 17.7 | 0.00 | 15.80 | 0.03 | 98 | 1011.8 |
| 20260504230227 | 13 | 5 | 8.0 | 17.7 | 0.10 | 15.80 | 0.03 | 97 | 1011.8 |
| 20260504225229 | 13 | 360 | 9.7 | 19.3 | 0.10 | 15.80 | 0.03 | 97 | 1011.9 |
| 20260504224230 | 13 | 5 | 6.4 | 17.7 | 0.71 | 15.80 | 0.03 | 98 | 1012.0 |
| 20260504223240 | 13 | 300 | 4.8 | 9.7 | 1.40 | 15.80 | 0.03 | 97 | 1012.0 |
| 20260504222253 | 13 | 329 | 4.8 | 9.7 | 2.49 | 15.80 | 0.03 | 98 | 1012.1 |
| 20260504221241 | 13 | 303 | 3.2 | 9.7 | 3.81 | 15.80 | 0.03 | 97 | 1012.2 |
| 20260504220235 | 13 | 315 | 4.8 | 9.7 | 6.91 | 15.70 | 0.00 | 97 | 1012.3 |
| 20260504215233 | 13 | 309 | 3.2 | 9.7 | 7.80 | 15.70 | 3.15 | 97 | 1012.3 |
| 20260504214302 | 13 | 319 | 4.8 | 14.5 | 8.41 | 15.01 | 3.00 | 97 | 1012.4 |
| 20260504213238 | 13 | 251 | 1.6 | 4.8 | 8.79 | 14.30 | 2.87 | 97 | 1012.5 |
| 20260504212259 | 13 | 157 | 3.2 | 4.8 | 8.41 | 13.21 | 2.64 | 97 | 1012.7 |
| 20260504211243 | 14 | 218 | 3.2 | 6.4 | 9.91 | 11.91 | 2.39 | 96 | 1012.7 |
| 20260504210242 | 14 | 169 | 0.0 | 4.8 | 6.91 | 8.71 | 1.75 | 96 | 1012.7 |
| 20260504205251 | 14 | 233 | 3.2 | 8.0 | 6.10 | 7.90 | 1.57 | 96 | 1012.7 |
| 20260504204231 | 15 | 222 | 1.6 | 9.7 | 4.80 | 6.50 | 1.30 | 96 | 1012.6 |
| 20260504203231 | 15 | 247 | 1.6 | 8.0 | 3.81 | 5.51 | 1.09 | 96 | 1012.7 |
| 20260504202312 | 15 | 209 | 3.2 | 6.4 | 3.20 | 4.70 | 0.94 | 96 | 1012.7 |
| 20260504201232 | 15 | 227 | 0.0 | 4.8 | 0.51 | 1.91 | 0.38 | 95 | 1012.7 |
| 20260504200232 | 15 | 227 | 1.6 | 4.8 | 0.41 | 1.80 | 0.36 | 95 | 1012.7 |
| 20260504195239 | 15 | 230 | 0.0 | 3.2 | 0.51 | 1.80 | 0.36 | 94 | 1012.7 |
| 20260504194237 | 15 | 230 | 0.0 | 4.8 | 0.61 | 1.70 | 0.33 | 94 | 1012.5 |
| 20260504193235 | 15 | 235 | 0.0 | 3.2 | 0.61 | 1.70 | 0.33 | 94 | 1012.5 |
| 20260504192251 | 15 | 264 | 1.6 | 4.8 | 0.41 | 1.50 | 0.30 | 94 | 1012.4 |
| 20260504191357 | 15 | 250 | 0.0 | 3.2 | 0.79 | 1.40 | 0.28 | 93 | 1012.4 |
| 20260504190252 | 15 | 310 | 1.6 | 3.2 | 1.30 | 1.40 | 0.28 | 93 | 1012.5 |
| 20260504185228 | 15 | 310 | 0.0 | 6.4 | 1.19 | 1.30 | 0.25 | 92 | 1012.4 |
| 20260504184227 | 15 | 263 | 1.6 | 8.0 | 0.99 | 1.09 | 0.23 | 92 | 1012.4 |
| 20260504183256 | 15 | 306 | 3.2 | 8.0 | 0.99 | 1.09 | 0.23 | 92 | 1012.2 |
| 20260504182247 | 15 | 146 | 3.2 | 4.8 | 0.99 | 1.09 | 0.23 | 91 | 1012.1 |
| 20260504181227 | 15 | 116 | 0.0 | 6.4 | 0.30 | 0.41 | 0.08 | 89 | 1012.1 |
| 20260504180236 | 16 | 92 | 1.6 | 4.8 | 0.00 | 0.10 | 0.03 | 88 | 1012.1 |
| 20260504175255 | 16 | 83 | 1.6 | 4.8 | 0.00 | 1.40 | 0.03 | 86 | 1012.2 |
| 20260504174242 | 17 | 78 | 1.6 | 4.8 | 0.00 | 1.40 | 0.03 | 86 | 1012.2 |
| 20260504173243 | 17 | 5 | 1.6 | 3.2 | 0.00 | 1.40 | 0.03 | 86 | 1012.0 |
| 20260504172321 | 17 | 75 | 0.0 | 1.6 | 0.00 | 1.40 | 0.03 | 85 | 1012.1 |
| 20260504171242 | 18 | 78 | 0.0 | 3.2 | 0.00 | 1.40 | 0.03 | 83 | 1012.1 |
| 20260504170241 | 18 | 63 | 0.0 | 12.9 | 0.00 | 1.40 | 0.03 | 81 | 1012.0 |